This demonstration page uses our WeatherBlox Daily Observations layout. Learn more.

Left ArrowRight Arrow

44.8408, -93.29828

Hourly Observations for November 3, 2016

Temp ( °F °C ) Dew Point ( °F °C ) Humidity (%) Winds ( mph kmh ) Pressure ( in mb ) Visibility ( mi km ) Precip ( " mm )
12:53 am 00:53 Mostly Clear 47 8.3 41 5 80 80 Calm 30.18 1022 10 16 0.00 0.00
1:53 am 01:53 Mostly Clear 47 8.3 42 5.6 83 83 Calm 30.18 1022 10 16 0.00 0.00
2:53 am 02:53 Mostly Clear 46 7.8 42 5.6 86 86 S 3 6 30.17 1022 10 16 0.00 0.00
3:53 am 03:53 Mostly Cloudy 45 7.2 42 5.6 90 90 Calm 30.18 1022 10 16 0.00 0.00
4:53 am 04:53 Mostly Cloudy 43 6.1 40 4.4 89 89 SW 3 6 30.18 1022 9 14 0.00 0.00
5:53 am 05:53 Cloudy 46 7.8 42 5.6 86 86 SW 6 9 30.20 1023 10 16 0.00 0.00
6:53 am 06:53 Cloudy 46 7.8 42 5.6 86 86 SW 7 11 30.20 1023 10 16 0.00 0.00
7:53 am 07:53 Mostly Cloudy 46 7.8 42 5.6 86 86 SW 5 7 30.22 1023 10 16 0.00 0.00
8:53 am 08:53 Mostly Cloudy 46 7.8 42 5.6 86 86 WSW 3 6 30.24 1024 10 16 0.00 0.00
9:53 am 09:53 Partly Cloudy 50 10 43 6.1 77 77 VRB 3 6 30.25 1025 10 16 0.00 0.00
10:53 am 10:53 Mostly Cloudy 55 12.8 45 7.2 69 69 NW 6 9 30.26 1025 10 16 0.00 0.00
11:53 am 11:53 Mostly Sunny 59 15 46 7.8 62 62 NW 8 13 30.28 1025 10 16 0.00 0.00
12:53 pm 12:53 Mostly Sunny 61 16.1 45 7.2 56 56 N 6 9 30.28 1025 10 16 0.00 0.00
1:53 pm 13:53 Sunny 63 17.2 43 6.1 48 48 N 10 17 30.28 1025 10 16 0.00 0.00
2:53 pm 14:53 Sunny 65 18.3 42 5.6 43 43 N 6 9 30.27 1025 10 16 0.00 0.00
3:53 pm 15:53 Sunny 65 18.3 41 5 42 42 N 5 7 30.28 1026 10 16 0.00 0.00
4:53 pm 16:53 Sunny 64 17.8 40 4.4 41 41 N 7 11 30.29 1026 10 16 0.00 0.00
5:53 pm 17:53 Sunny 63 17.2 39 3.9 41 41 NE 3 6 30.31 1026 10 16 0.00 0.00
6:53 pm 18:53 Clear 59 15 39 3.9 48 48 NE 3 6 30.32 1027 10 16 0.00 0.00
7:53 pm 19:53 Clear 57 13.9 40 4.4 53 53 Calm 30.34 1028 10 16 0.00 0.00
8:53 pm 20:53 Clear 55 12.8 39 3.9 55 55 Calm 30.34 1028 10 16 0.00 0.00
9:53 pm 21:53 Clear 52 11.1 39 3.9 61 61 Calm 30.36 1028 10 16 0.00 0.00
10:53 pm 22:53 Clear 49 9.4 39 3.9 69 69 Calm 30.36 1028 10 16 0.00 0.00
11:53 pm 23:53 Clear 47 8.3 39 3.9 74 74 Calm 30.36 1028 10 16 0.00 0.00

Powered by AerisWeather